CZ-4B DEB, 38315

Orbit data source: Space-Track

CZ-4B DEB, 38315 is space debris in SSO originally from a launch on Mon, 15 Aug 2011 UTC launched from the Taiyaun Space Center, China (TSC). Debris objects in space refer to the collection of defunct objects orbiting the Earth. Examples of debris include non-operational satellites, rocket bodies, and fragments generated from explosions, collisions, or faulty payload assembly.

Loading next visibility...
Identifier
38315, 2011-043E
Orbit
SSO
Country
Flag of CNCN / PRC
Related business
Manufacturer
Unknown
Mission
Spacecraft
Bus & Motor
Unknown
Mass
Unknown
Launch date (UTC)
2011-08-15 (15 years ago)
Launch vehicle
Unknown
Launch site
Taiyaun Space Center, China (TSC)
Object type
Payload
Rocket body
Debris
Shape & HBR
Unknown shape, 0.1 m
Radar Cross Section
Small (<0.1 m²)

Expand to show TLE details & history
Last TLE update: 3 days ago

TLE from 3 days ago
0 CZ-4B DEB
1 38315U 11043E   26170.63123811  .00000089  00000-0  17698-3 0  9991
2 38315  99.8677 106.4865 0216294 332.6912  26.2984 13.52423013628931
Epoch: 2026-06-19T15:08Z
TLE epoch observation values (Epoch: 2026-06-19T15:08:58.972Z)
Latitude
-0.00004°
Longitude
-28.61665°
Altitude
922.524 km
Speed
7.462 km/s
True Right ascension
07h 05m 56s
True Declination
0° 00' 00"
Sunlit
Object was in daylight at epoch
Visualization orbit readout
Latitude
Unknown
Longitude
Unknown
Altitude
Unknown
Speed
Unknown
Apparent Right ascension
Unknown
Apparent Declination
Unknown
Sunlit
N/A
Visualization observer readout
Local Sidereal Time
00:54:25
Azimuth
Unknown
Elevation
Unknown
Doppler factor
Unknown
Orbital elements
Apogee altitude
1,221.559 km
Perigee altitude
899.765 km
Semi-major axis
7,438.799 km
Eccentricity
0.02163
Inclination
99.8677°
RAAN
106.4865°
Arg. of periapsis
332.6912°
True anomaly
27.42369°
Mean anomaly
26.2984°
Eccentric anomaly
26.85829°
Mean motion
3.3829 °/min
Orbital period
106.42 mins
BSTAR
0.00017698
Loading maneuver chart data...
Computing Atmospheric mass density...
Loading historical data...
Loading historical data...
Loading historical data...
Loading historical data...
Loading historical data...
Loading historical data...
Loading historical data...

Documentation

Showing up to 5 results
|